AKDT,Max TemperatureF,Mean TemperatureF,Min TemperatureF,Max Dew PointF,MeanDew PointF,Min DewpointF,Max Humidity, Mean Humidity, Min Humidity, Max Sea Level PressureIn, Mean Sea Level PressureIn, Min Sea Level PressureIn, Max VisibilityMiles, Mean VisibilityMiles, Min VisibilityMiles, Max Wind SpeedMPH, Mean Wind SpeedMPH, Max Gust SpeedMPH,PrecipitationIn, CloudCover, Events, WindDirDegrees
2012-9-1,69,60,51,48,46,44,82,66,42,29.69,29.60,29.56,10,8,2,17,6,16,0.42,6,Rain,238
2012-9-2,57,50,42,47,44,40,90,70,59,29.74,29.66,29.52,10,10,7,13,4,20,0.12,6,Rain,79
2012-9-3,59,54,51,48,45,42,88,72,60,29.83,29.61,29.50,10,9,2,17,7,26,0.07,8,Rain,203
2012-9-4,57,50,46,48,42,37,83,67,55,29.93,29.81,29.58,10,9,3,24,11,43,0.23,6,Rain,149
2012-9-5,55,53,51,46,43,41,83,69,62,29.95,29.73,29.61,10,10,7,12,8,20,0.01,8,Rain,188
2012-9-6,55,50,44,43,40,34,79,67,47,30.19,30.11,29.95,10,10,10,15,9,21,0.00,4,,245
2012-9-7,55,48,41,40,37,35,82,67,49,30.15,30.00,29.86,10,10,9,6,3,,0.00,4,Rain,74
2012-9-8,55,49,44,43,40,37,86,76,55,29.85,29.80,29.75,10,10,7,10,4,,0.22,5,Rain,355
2012-9-9,61,54,46,41,33,26,71,49,26,29.85,29.79,29.75,10,10,10,13,8,21,0.00,1,,329
2012-9-10,57,46,34,43,35,29,82,63,40,29.88,29.85,29.80,10,10,10,7,2,,0.01,2,,56
2012-9-11,54,46,39,43,39,34,82,70,55,29.84,29.76,29.60,10,10,10,12,2,,0.04,8,Rain,61
2012-9-12,53,49,46,45,42,38,87,77,61,29.78,29.66,29.56,10,10,7,9,4,,0.09,8,Rain,67
2012-9-13,55,48,42,47,43,39,90,80,61,29.84,29.82,29.79,10,10,10,9,2,,0.00,5,,60
2012-9-14,54,49,44,45,43,40,90,78,62,29.81,29.79,29.75,10,10,10,6,1,,0.03,7,Rain,62
2012-9-15,57,52,48,49,45,42,86,75,62,29.80,29.72,29.46,10,9,5,15,5,26,0.54,8,Rain,105
2012-9-16,57,54,50,50,43,36,83,67,52,29.66,29.45,29.37,10,9,4,18,9,32,0.19,8,Rain,155
2012-9-17,55,51,48,41,38,35,66,59,49,29.95,29.87,29.69,10,10,10,14,10,23,0.01,7,Rain,171
2012-9-18,57,54,50,46,44,41,75,69,62,29.83,29.72,29.66,10,9,7,20,10,29,0.51,8,Rain,114
2012-9-19,61,57,54,52,48,43,82,73,59,29.69,29.51,29.42,10,8,2,20,9,30,0.61,8,Rain,133
2012-9-20,57,54,51,52,48,44,90,78,62,29.69,29.65,29.61,10,9,4,13,6,25,0.39,8,Rain,211
2012-9-21,60,51,45,52,46,40,84,75,59,29.80,29.67,29.45,10,9,5,14,4,18,0.37,6,Rain,56
2012-9-22,61,56,50,52,48,45,89,75,58,29.44,29.34,29.27,10,9,5,21,10,28,0.86,7,Rain,85
2012-9-23,53,50,48,48,45,39,90,83,69,29.79,29.52,29.29,10,10,5,16,5,,0.16,8,Rain,200
2012-9-24,53,46,39,39,36,33,79,68,54,29.93,29.86,29.75,10,10,10,14,10,22,0.00,5,Rain,135
2012-9-25,54,50,46,41,38,36,83,64,55,29.73,29.37,29.07,10,10,7,23,15,36,0.06,7,Rain,66
2012-9-26,51,48,46,40,38,35,76,69,61,29.33,29.04,28.69,10,10,5,24,12,33,0.22,7,Rain,52
2012-9-27,52,49,46,42,38,33,80,67,56,29.06,28.84,28.69,10,10,10,21,10,29,0.06,5,Rain,55
2012-9-28,46,42,39,43,32,25,87,66,51,29.49,29.29,29.08,10,10,6,18,11,24,0.11,8,Rain,239
2012-9-29,46,40,33,29,26,23,76,58,42,29.86,29.70,29.51,10,10,10,17,9,22,0.00,4,,88
2012-9-30,45,35,26,31,27,21,81,69,53,30.12,30.01,29.88,10,10,10,9,1,,0.00,1,,92